Tracking 31030 objects as of 17-Jul-2025
HD Live streaming from Space Station
objects crossing your sky now

COSMOS 1510

Track COSMOS 1510 now!
10-day predictions
COSMOS 1510 is classified as:


NORAD ID: 14521
Int'l Code: 1983-115A
Perigee: 1,487.2 km
Apogee: 1,530.2 km
Inclination: 73.6 °
Period: 116.0 minutes
Semi major axis: 7879 km
RCS: 10.4266 m2 (large)
Launch date: November 24, 1983
Source: Commonwealth of Independent States (former USSR) (CIS)
Launch site: PLESETSK MISSILE AND SPACE COMPLEX (PKMTR)
Your satellite tracking list
Your tracking list is empty




NASA's NSSDC Master Catalog

Two Line Element Set (TLE):
1 14521U 83115A   25197.61372183 -.00000024  00000-0 -51919-4 0  9993
2 14521  73.6174  40.5032 0027303  91.8001 324.6113 12.41196713887403
Source of the keplerian elements: AFSPC